DW8492 Weather Reports


time (UTC)temp
F
wind
direction
speed
knots
gust
knots
rain 1hr
in
rain 24hr
in
rain mn
in
humidity
%
barometer
mb
20260504030027 42 249 0.0 0.0 0.00 0.00 0.00 72 1013.3
20260504024545 43 249 0.0 0.0 0.00 0.00 0.00 70 1013.5
20260504023012 44 249 0.0 0.0 0.00 0.00 0.00 68 1013.6
20260504021552 45 249 0.0 0.0 0.00 0.00 0.00 65 1013.6
20260504020020 46 249 0.0 0.0 0.00 0.00 0.00 63 1013.6
20260504014603 48 249 0.0 0.0 0.00 0.00 0.00 59 1013.6
20260504013025 50 249 0.0 0.0 0.00 0.00 0.00 55 1013.5
20260504011559 51 249 0.0 0.9 0.00 0.00 0.00 52 1013.4
20260504010015 52 249 0.0 1.7 0.00 0.00 0.00 50 1013.4
20260504004621 53 249 0.0 3.5 0.00 0.00 0.00 48 1013.4
20260504003027 53 248 1.7 4.3 0.00 0.00 0.00 48 1013.3
20260504001601 54 246 0.0 0.9 0.00 0.00 0.00 48 1013.4
20260504000104 54 263 0.0 4.3 0.00 0.00 0.00 46 1013.4
20260503234537 55 234 0.9 5.2 0.00 0.00 0.00 45 1013.3
20260503233101 55 240 0.9 4.3 0.00 0.00 0.00 45 1013.3
20260503231533 56 305 0.9 5.2 0.00 0.00 0.00 44 1013.4
20260503230111 56 228 0.9 7.8 0.00 0.00 0.00 43 1013.4
20260503224537 57 239 2.6 6.1 0.00 0.00 0.00 41 1013.4
20260503223005 57 219 1.7 5.2 0.00 0.00 0.00 42 1013.5
20260503221551 57 250 1.7 6.1 0.00 0.00 0.00 41 1013.5
20260503220015 58 264 2.6 7.8 0.00 0.00 0.00 39 1013.6
20260503214553 59 239 0.9 7.0 0.00 0.00 0.00 39 1013.5
20260503213018 59 245 1.7 7.8 0.00 0.00 0.00 39 1013.5
20260503211601 58 317 1.7 7.8 0.00 0.00 0.00 41 1013.5
20260503210028 58 205 2.6 7.8 0.00 0.00 0.00 40 1013.6
20260503204611 58 264 1.7 9.6 0.00 0.00 0.00 41 1013.8
20260503203023 57 219 0.9 7.0 0.00 0.00 0.00 41 1013.9
20260503201606 58 239 3.5 8.7 0.00 0.00 0.00 39 1014.1
20260503200028 58 306 4.3 8.7 0.00 0.00 0.00 41 1014.2
20260503194600 59 216 3.5 7.8 0.00 0.00 0.00 42 1014.6
20260503193033 57 199 4.3 12.2 0.00 0.00 0.00 43 1014.8
20260503191635 57 165 1.7 7.0 0.00 0.00 0.00 42 1015.0
20260503190040 57 263 2.6 7.0 0.00 0.00 0.00 44 1015.3
20260503184505 58 317 0.9 6.1 0.00 0.00 0.00 43 1015.4
20260503183057 57 255 1.7 7.8 0.00 0.00 0.00 43 1015.6
20260503181503 55 258 3.5 8.7 0.00 0.00 0.00 44 1015.8
20260503180044 56 266 1.7 7.0 0.00 0.00 0.00 46 1016.0
20260503174610 55 242 0.9 6.1 0.00 0.00 0.00 47 1016.2
20260503173103 55 236 2.6 6.1 0.00 0.00 0.00 47 1016.3
20260503171501 54 10 3.5 10.4 0.00 0.00 0.00 42 1016.5
20260503150107 49 242 1.7 8.7 0.00 0.01 0.00 52 1017.6
20260503120125 34 226 1.7 4.3 0.00 0.03 0.00 95 1017.8
20260503100106 27 360 0.0 0.0 0.00 0.03 0.00 94 1016.9
20260503081537 29 360 0.0 0.0 0.00 0.03 0.00 93 1016.7
20260503071618 31 360 0.0 0.0 0.00 0.03 0.00 93 1016.5
20260503054646 32 360 0.0 0.0 0.00 0.03 0.00 92 1016.7
20260503053039 32 360 0.0 0.0 0.00 0.03 0.00 92 1016.8
20260503051609 32 360 0.0 0.0 0.00 0.03 0.00 91 1016.8
20260503044529 32 360 0.0 0.0 0.00 0.03 0.00 91 1017.0
20260503043110 32 360 0.0 0.0 0.00 0.03 0.00 90 1017.0
20260503041536 32 360 0.0 0.0 0.00 0.03 0.00 89 1017.0
20260503040004 32 360 0.0 0.0 0.00 0.03 0.00 88 1017.0
20260503034603 32 360 0.0 0.0 0.00 0.03 0.03 87 1017.0
20260503033007 33 360 0.0 0.0 0.00 0.03 0.03 86 1016.9
20260503031550 34 360 0.0 0.0 0.00 0.03 0.03 85 1017.0